Time,TemperatureF,DewpointF,PressureIn,WindDirection,WindDirectionDegrees,WindSpeedMPH,WindSpeedGustMPH,Humidity,HourlyPrecipIn,Conditions,Clouds,dailyrainin,SolarRadiationWatts/m^2,SoftwareType,DateUTC
2013-01-09 00:01:00,26.2,20.9,30.03,WNW,284,19.0,20.0,80,0.00,,CLR,0.00,0.00,VWS V14.00,2013-01-09 06:01:00,
2013-01-09 00:06:00,26.2,20.6,30.03,WNW,296,17.0,24.0,79,0.00,,CLR,0.00,0.00,VWS V14.00,2013-01-09 06:06:00,
2013-01-09 00:11:00,25.9,20.3,30.04,WNW,296,17.0,24.0,79,0.00,,CLR,0.00,0.00,VWS V14.00,2013-01-09 06:11:00,
2013-01-09 00:16:00,25.7,20.4,30.04,WNW,299,18.0,24.0,80,0.00,,CLR,0.00,0.00,VWS V14.00,2013-01-09 06:16:00,
2013-01-09 00:21:00,25.6,20.3,30.04,WNW,299,21.0,24.0,80,0.00,,CLR,0.00,0.00,VWS V14.00,2013-01-09 06:21:00,
2013-01-09 00:26:00,25.5,19.9,30.04,WNW,296,18.0,24.0,79,0.00,,CLR,0.00,0.00,VWS V14.00,2013-01-09 06:26:00,
2013-01-09 00:31:00,25.4,19.8,30.05,WNW,294,18.0,21.0,79,0.00,,CLR,0.00,0.00,VWS V14.00,2013-01-09 06:31:00,
2013-01-09 00:36:00,25.3,19.4,30.05,WNW,294,16.0,22.0,78,0.00,,CLR,0.00,0.00,VWS V14.00,2013-01-09 06:36:00,
2013-01-09 00:41:00,25.2,19.3,30.05,WNW,295,14.0,22.0,78,0.00,,CLR,0.00,0.00,VWS V14.00,2013-01-09 06:41:00,
2013-01-09 00:46:00,25.1,19.2,30.05,WNW,293,16.0,25.0,78,0.00,,CLR,0.00,0.00,VWS V14.00,2013-01-09 06:46:00,
2013-01-09 00:51:00,24.9,19.0,30.05,WNW,296,17.0,25.0,78,0.00,,CLR,0.00,0.00,VWS V14.00,2013-01-09 06:51:00,
2013-01-09 00:56:00,25.1,19.2,30.05,WNW,300,20.0,27.0,78,0.00,,CLR,0.00,0.00,VWS V14.00,2013-01-09 06:56:00,
2013-01-09 01:01:00,25.1,18.9,30.05,WNW,292,19.0,23.0,77,0.00,,CLR,0.00,0.00,VWS V14.00,2013-01-09 07:01:00,
2013-01-09 01:06:00,25.0,18.8,30.05,WNW,293,16.0,25.0,77,0.00,,CLR,0.00,0.00,VWS V14.00,2013-01-09 07:06:00,
2013-01-09 01:11:00,25.2,19.0,30.06,WNW,298,18.0,26.0,77,0.00,,CLR,0.00,0.00,VWS V14.00,2013-01-09 07:11:00,
2013-01-09 01:16:00,25.3,19.1,30.06,WNW,287,21.0,28.0,77,0.00,,CLR,0.00,0.00,VWS V14.00,2013-01-09 07:16:00,
2013-01-09 01:21:00,25.3,19.1,30.06,WNW,290,19.0,28.0,77,0.00,,CLR,0.00,0.00,VWS V14.00,2013-01-09 07:21:00,
2013-01-09 01:26:00,25.1,18.9,30.06,WNW,296,21.0,28.0,77,0.00,,CLR,0.00,0.00,VWS V14.00,2013-01-09 07:26:00,
2013-01-09 01:31:00,25.0,19.1,30.07,West,277,23.0,23.0,78,0.00,,CLR,0.00,0.00,VWS V14.00,2013-01-09 07:31:00,
2013-01-09 01:36:00,25.0,18.8,30.07,WNW,287,20.0,25.0,77,0.00,,CLR,0.00,0.00,VWS V14.00,2013-01-09 07:36:00,
2013-01-09 01:41:00,24.0,18.1,30.07,WNW,284,19.0,25.0,78,0.00,,CLR,0.00,0.00,VWS V14.00,2013-01-09 07:41:00,
2013-01-09 01:47:00,23.9,18.4,30.07,WNW,293,17.0,25.0,79,0.00,,CLR,0.00,0.00,VWS V14.00,2013-01-09 07:47:00,
2013-01-09 01:52:00,24.2,18.3,30.08,WNW,290,16.0,25.0,78,0.00,,CLR,0.00,0.00,VWS V14.00,2013-01-09 07:52:00,
2013-01-09 01:57:00,23.9,18.0,30.08,WNW,292,15.0,25.0,78,0.00,,CLR,0.00,0.00,VWS V14.00,2013-01-09 07:57:00,
2013-01-09 02:02:00,23.8,18.0,30.08,West,279,14.0,20.0,78,0.00,,CLR,0.00,0.00,VWS V14.00,2013-01-09 08:02:00,
2013-01-09 02:07:00,23.4,17.9,30.09,WNW,284,14.0,20.0,79,0.00,,CLR,0.00,0.00,VWS V14.00,2013-01-09 08:07:00,
2013-01-09 02:12:00,24.1,18.5,30.09,West,279,17.0,20.0,79,0.00,,CLR,0.00,0.00,VWS V14.00,2013-01-09 08:12:00,
2013-01-09 02:17:00,24.2,18.3,30.09,WNW,283,18.0,20.0,78,0.00,,CLR,0.00,0.00,VWS V14.00,2013-01-09 08:17:00,
2013-01-09 02:22:00,24.0,18.1,30.09,WNW,286,19.0,21.0,78,0.00,,CLR,0.00,0.00,VWS V14.00,2013-01-09 08:22:00,
2013-01-09 02:27:00,23.8,18.0,30.08,West,279,17.0,22.0,78,0.00,,CLR,0.00,0.00,VWS V14.00,2013-01-09 08:27:00,
2013-01-09 02:32:00,23.7,18.1,30.09,West,280,17.0,20.0,79,0.00,,CLR,0.00,0.00,VWS V14.00,2013-01-09 08:32:00,
2013-01-09 02:37:00,23.6,18.1,30.09,WNW,286,16.0,22.0,79,0.00,,CLR,0.00,0.00,VWS V14.00,2013-01-09 08:37:00,
2013-01-09 02:42:00,23.3,18.1,30.09,WNW,288,19.0,22.0,80,0.00,,CLR,0.00,0.00,VWS V14.00,2013-01-09 08:42:00,
2013-01-09 02:47:00,23.4,18.1,30.10,NW,306,19.0,22.0,80,0.00,,CLR,0.00,0.00,VWS V14.00,2013-01-09 08:47:00,
2013-01-09 02:52:00,23.4,17.9,30.10,WNW,289,17.0,23.0,79,0.00,,CLR,0.00,0.00,VWS V14.00,2013-01-09 08:52:00,
2013-01-09 02:57:00,23.6,18.1,30.11,WNW,287,19.0,23.0,79,0.00,,CLR,0.00,0.00,VWS V14.00,2013-01-09 08:57:00,
2013-01-09 03:02:00,22.7,17.2,30.11,WNW,288,17.0,19.0,79,0.00,,CLR,0.00,0.00,VWS V14.00,2013-01-09 09:02:00,
2013-01-09 03:07:00,22.6,17.4,30.11,WNW,284,14.0,19.0,80,0.00,,CLR,0.00,0.00,VWS V14.00,2013-01-09 09:07:00,
2013-01-09 03:12:00,22.8,17.6,30.11,WNW,294,16.0,22.0,80,0.00,,CLR,0.00,0.00,VWS V14.00,2013-01-09 09:12:00,
2013-01-09 03:17:00,22.7,17.5,30.11,West,281,15.0,22.0,80,0.00,,CLR,0.00,0.00,VWS V14.00,2013-01-09 09:17:00,
2013-01-09 03:22:00,22.5,17.3,30.11,West,279,15.0,22.0,80,0.00,,CLR,0.00,0.00,VWS V14.00,2013-01-09 09:22:00,
2013-01-09 03:27:00,22.6,17.4,30.11,WNW,283,15.0,22.0,80,0.00,,CLR,0.00,0.00,VWS V14.00,2013-01-09 09:27:00,
2013-01-09 03:32:00,22.5,17.3,30.11,West,281,17.0,20.0,80,0.00,,CLR,0.00,0.00,VWS V14.00,2013-01-09 09:32:00,
2013-01-09 03:37:00,22.5,17.3,30.11,WNW,290,13.0,20.0,80,0.00,,CLR,0.00,0.00,VWS V14.00,2013-01-09 09:37:00,
2013-01-09 03:42:00,22.1,17.2,30.12,WNW,284,14.0,21.0,81,0.00,,CLR,0.00,0.00,VWS V14.00,2013-01-09 09:42:00,
2013-01-09 03:47:00,21.9,17.0,30.12,WNW,291,14.0,21.0,81,0.00,,CLR,0.00,0.00,VWS V14.00,2013-01-09 09:47:00,
2013-01-09 03:52:00,22.4,17.5,30.13,West,280,16.0,21.0,81,0.00,,CLR,0.00,0.00,VWS V14.00,2013-01-09 09:52:00,
2013-01-09 03:57:00,22.2,17.0,30.13,WNW,284,16.0,21.0,80,0.00,,CLR,0.00,0.00,VWS V14.00,2013-01-09 09:57:00,
2013-01-09 04:02:00,22.3,17.1,30.13,West,273,15.0,17.0,80,0.00,,CLR,0.00,0.00,VWS V14.00,2013-01-09 10:02:00,
2013-01-09 04:07:00,22.1,16.6,30.14,West,265,16.0,17.0,79,0.00,,CLR,0.00,0.00,VWS V14.00,2013-01-09 10:07:00,
2013-01-09 04:12:00,21.6,16.4,30.14,West,274,14.0,17.0,80,0.00,,CLR,0.00,0.00,VWS V14.00,2013-01-09 10:12:00,
2013-01-09 04:17:00,21.2,16.0,30.15,West,270,15.0,17.0,80,0.00,,CLR,0.00,0.00,VWS V14.00,2013-01-09 10:17:00,
2013-01-09 04:22:00,20.4,15.5,30.15,West,267,12.0,17.0,81,0.00,,CLR,0.00,0.00,VWS V14.00,2013-01-09 10:22:00,
2013-01-09 04:27:00,20.1,15.5,30.15,West,269,10.0,17.0,82,0.00,,CLR,0.00,0.00,VWS V14.00,2013-01-09 10:27:00,
2013-01-09 04:33:00,20.3,15.4,30.15,West,270,10.0,14.0,81,0.00,,CLR,0.00,0.00,VWS V14.00,2013-01-09 10:33:00,
2013-01-09 04:38:00,20.0,15.1,30.15,West,265,9.0,14.0,81,0.00,,CLR,0.00,0.00,VWS V14.00,2013-01-09 10:38:00,
2013-01-09 04:43:00,20.2,15.3,30.16,West,271,9.0,14.0,81,0.00,,CLR,0.00,0.00,VWS V14.00,2013-01-09 10:43:00,
2013-01-09 04:48:00,20.0,15.1,30.16,West,268,7.0,14.0,81,0.00,,CLR,0.00,0.00,VWS V14.00,2013-01-09 10:48:00,
2013-01-09 04:53:00,20.4,15.5,30.16,WNW,284,12.0,14.0,81,0.00,,CLR,0.00,0.00,VWS V14.00,2013-01-09 10:53:00,
2013-01-09 04:58:00,20.9,15.7,30.16,West,281,14.0,18.0,80,0.00,,CLR,0.00,0.00,VWS V14.00,2013-01-09 10:58:00,
2013-01-09 05:03:00,20.9,15.4,30.16,WNW,286,9.0,13.0,79,0.00,,CLR,0.00,0.00,VWS V14.00,2013-01-09 11:03:00,
2013-01-09 05:08:00,20.5,15.0,30.16,WNW,289,3.0,13.0,79,0.00,,CLR,0.00,0.00,VWS V14.00,2013-01-09 11:08:00,
2013-01-09 05:13:00,20.3,15.1,30.17,WNW,292,4.0,13.0,80,0.00,,CLR,0.00,0.00,VWS V14.00,2013-01-09 11:13:00,
2013-01-09 05:18:00,20.5,15.3,30.17,WNW,298,6.0,13.0,80,0.00,,CLR,0.00,0.00,VWS V14.00,2013-01-09 11:18:00,
2013-01-09 05:23:00,20.5,15.0,30.17,WNW,292,0.0,13.0,79,0.00,,CLR,0.00,0.00,VWS V14.00,2013-01-09 11:23:00,
2013-01-09 05:28:00,20.4,14.9,30.17,NW,308,2.0,13.0,79,0.00,,CLR,0.00,0.00,VWS V14.00,2013-01-09 11:28:00,
2013-01-09 05:33:00,20.2,14.7,30.17,NW,323,1.0,4.0,79,0.00,,CLR,0.00,0.00,VWS V14.00,2013-01-09 11:33:00,
2013-01-09 05:38:00,20.1,14.6,30.17,NW,323,0.0,4.0,79,0.00,,CLR,0.00,0.00,VWS V14.00,2013-01-09 11:38:00,
2013-01-09 05:43:00,20.2,15.0,30.17,NW,323,3.0,4.0,80,0.00,,CLR,0.00,0.00,VWS V14.00,2013-01-09 11:43:00,
2013-01-09 05:48:00,20.4,15.2,30.18,NW,323,1.0,4.0,80,0.00,,CLR,0.00,0.00,VWS V14.00,2013-01-09 11:48:00,
2013-01-09 05:53:00,20.4,15.2,30.17,NW,323,0.0,4.0,80,0.00,,CLR,0.00,0.00,VWS V14.00,2013-01-09 11:53:00,
2013-01-09 05:58:00,20.2,14.7,30.18,NW,323,1.0,5.0,79,0.00,,CLR,0.00,0.00,VWS V14.00,2013-01-09 11:58:00,
2013-01-09 06:03:00,20.2,15.0,30.18,NW,316,7.0,7.0,80,0.00,,CLR,0.00,0.00,VWS V14.00,2013-01-09 12:03:00,
2013-01-09 06:08:00,20.7,15.2,30.18,WNW,298,2.0,7.0,79,0.00,,CLR,0.00,0.00,VWS V14.00,2013-01-09 12:08:00,
2013-01-09 06:13:00,20.8,15.0,30.17,WNW,298,2.0,7.0,78,0.00,,CLR,0.00,0.00,VWS V14.00,2013-01-09 12:13:00,
2013-01-09 06:18:00,20.5,14.7,30.17,WNW,298,3.0,7.0,78,0.00,,CLR,0.00,0.00,VWS V14.00,2013-01-09 12:18:00,
2013-01-09 06:23:00,20.4,14.9,30.17,WNW,298,3.0,7.0,79,0.00,,CLR,0.00,0.00,VWS V14.00,2013-01-09 12:23:00,
2013-01-09 06:28:00,20.4,14.6,30.17,WNW,298,0.0,7.0,78,0.00,,CLR,0.00,0.00,VWS V14.00,2013-01-09 12:28:00,
2013-01-09 06:33:00,20.3,14.8,30.17,WNW,298,3.0,5.0,79,0.00,,CLR,0.00,0.00,VWS V14.00,2013-01-09 12:33:00,
2013-01-09 06:38:00,20.6,15.1,30.17,WNW,298,3.0,6.0,79,0.00,,CLR,0.00,0.00,VWS V14.00,2013-01-09 12:38:00,
2013-01-09 06:43:00,20.8,15.0,30.17,WNW,298,3.0,6.0,78,0.00,,CLR,0.00,0.00,VWS V14.00,2013-01-09 12:43:00,
2013-01-09 06:48:00,20.7,14.6,30.17,WNW,298,4.0,6.0,77,0.00,,CLR,0.00,0.00,VWS V14.00,2013-01-09 12:48:00,
2013-01-09 06:53:00,20.3,14.3,30.17,WNW,296,5.0,6.0,77,0.00,,CLR,0.00,0.00,VWS V14.00,2013-01-09 12:53:00,
2013-01-09 06:58:00,19.9,14.2,30.17,WNW,296,2.0,6.0,78,0.00,,CLR,0.00,0.00,VWS V14.00,2013-01-09 12:58:00,
2013-01-09 07:03:00,19.4,13.4,30.17,WNW,296,2.0,4.0,77,0.00,,CLR,0.00,0.00,VWS V14.00,2013-01-09 13:03:00,
2013-01-09 07:09:00,18.9,13.2,30.17,WNW,296,2.0,4.0,78,0.00,,CLR,0.00,0.00,VWS V14.00,2013-01-09 13:09:00,
2013-01-09 07:14:00,18.7,13.6,30.17,WNW,296,3.0,4.0,80,0.00,,CLR,0.00,0.00,VWS V14.00,2013-01-09 13:14:00,
2013-01-09 07:19:00,18.8,13.7,30.17,WNW,296,4.0,4.0,80,0.00,,CLR,0.00,0.00,VWS V14.00,2013-01-09 13:19:00,
2013-01-09 07:24:00,19.6,14.4,30.17,WNW,296,3.0,5.0,80,0.00,,CLR,0.00,0.00,VWS V14.00,2013-01-09 13:24:00,
2013-01-09 07:29:00,20.2,14.7,30.17,WNW,296,2.0,5.0,79,0.00,,CLR,0.00,0.00,VWS V14.00,2013-01-09 13:29:00,
2013-01-09 07:34:00,20.2,14.4,30.17,WNW,296,0.0,3.0,78,0.00,,CLR,0.00,0.00,VWS V14.00,2013-01-09 13:34:00,
2013-01-09 07:39:00,20.2,14.4,30.18,WNW,296,0.0,3.0,78,0.00,,CLR,0.00,0.00,VWS V14.00,2013-01-09 13:39:00,
2013-01-09 07:44:00,20.1,14.4,30.18,WNW,296,1.0,3.0,78,0.00,,CLR,0.00,0.00,VWS V14.00,2013-01-09 13:44:00,
2013-01-09 07:49:00,19.9,14.2,30.18,WNW,296,1.0,3.0,78,0.00,,CLR,0.00,0.00,VWS V14.00,2013-01-09 13:49:00,
2013-01-09 07:54:00,19.7,14.3,30.18,WNW,296,0.0,3.0,79,0.00,,CLR,0.00,0.00,VWS V14.00,2013-01-09 13:54:00,
2013-01-09 07:59:00,19.8,14.6,30.18,WNW,296,1.0,3.0,80,0.00,,CLR,0.00,0.00,VWS V14.00,2013-01-09 13:59:00,
2013-01-09 08:04:00,19.9,14.4,30.18,WNW,296,2.0,2.0,79,0.00,,CLR,0.00,0.00,VWS V14.00,2013-01-09 14:04:00,
2013-01-09 08:09:00,19.8,14.1,30.18,WNW,296,1.0,3.0,78,0.00,,CLR,0.00,0.00,VWS V14.00,2013-01-09 14:09:00,
2013-01-09 08:14:00,19.6,13.9,30.18,WNW,296,3.0,4.0,78,0.00,,CLR,0.00,0.00,VWS V14.00,2013-01-09 14:14:00,
2013-01-09 08:19:00,19.6,14.2,30.18,WNW,296,3.0,4.0,79,0.00,,CLR,0.00,0.00,VWS V14.00,2013-01-09 14:19:00,
2013-01-09 08:24:00,19.8,14.4,30.18,WNW,296,3.0,4.0,79,0.00,,CLR,0.00,5.00,VWS V14.00,2013-01-09 14:24:00,
2013-01-09 08:29:00,19.8,14.1,30.18,WNW,296,3.0,3.0,78,0.00,,CLR,0.00,7.00,VWS V14.00,2013-01-09 14:29:00,
2013-01-09 08:34:00,19.8,14.4,30.18,WNW,297,3.0,5.0,79,0.00,,CLR,0.00,9.00,VWS V14.00,2013-01-09 14:34:00,
2013-01-09 08:39:00,20.5,14.7,30.18,WNW,297,3.0,5.0,78,0.00,,CLR,0.00,11.00,VWS V14.00,2013-01-09 14:39:00,
2013-01-09 08:44:00,20.7,14.4,30.18,WNW,297,2.0,5.0,76,0.00,,CLR,0.00,12.00,VWS V14.00,2013-01-09 14:44:00,
2013-01-09 08:49:00,20.2,13.9,30.18,WNW,297,2.0,5.0,76,0.00,,CLR,0.00,16.00,VWS V14.00,2013-01-09 14:49:00,
2013-01-09 08:54:00,19.8,13.8,30.18,WNW,297,2.0,5.0,77,0.00,,CLR,0.00,18.00,VWS V14.00,2013-01-09 14:54:00,
2013-01-09 08:59:00,19.7,13.7,30.19,WNW,297,1.0,2.0,77,0.00,,CLR,0.00,21.00,VWS V14.00,2013-01-09 14:59:00,
2013-01-09 09:04:00,18.7,11.5,30.19,South,190,5.0,7.0,73,0.00,,CLR,0.00,28.00,VWS V14.00,2013-01-09 15:04:00,
2013-01-09 09:10:00,16.9,10.7,30.19,South,189,4.0,7.0,76,0.00,,CLR,0.00,37.00,VWS V14.00,2013-01-09 15:10:00,
2013-01-09 09:15:00,16.5,11.1,30.18,SSE,161,6.0,7.0,79,0.00,,CLR,0.00,49.00,VWS V14.00,2013-01-09 15:15:00,
2013-01-09 09:20:00,16.8,11.7,30.18,SSE,160,3.0,7.0,80,0.00,,CLR,0.00,74.00,VWS V14.00,2013-01-09 15:20:00,
2013-01-09 09:25:00,17.6,12.8,30.18,SSE,160,4.0,7.0,81,0.00,,CLR,0.00,65.00,VWS V14.00,2013-01-09 15:25:00,
2013-01-09 09:30:00,18.5,13.6,30.18,SSE,160,3.0,4.0,81,0.00,,CLR,0.00,74.00,VWS V14.00,2013-01-09 15:30:00,
2013-01-09 09:35:00,19.1,13.7,30.18,SSE,160,3.0,4.0,79,0.00,,CLR,0.00,62.00,VWS V14.00,2013-01-09 15:35:00,
2013-01-09 09:40:00,19.6,13.9,30.18,SSE,160,3.0,4.0,78,0.00,,CLR,0.00,83.00,VWS V14.00,2013-01-09 15:40:00,
2013-01-09 09:45:00,19.8,14.1,30.18,SSE,160,3.0,4.0,78,0.00,,CLR,0.00,86.00,VWS V14.00,2013-01-09 15:45:00,
2013-01-09 09:50:00,20.3,14.6,30.18,SSE,160,4.0,4.0,78,0.00,,CLR,0.00,102.00,VWS V14.00,2013-01-09 15:50:00,
2013-01-09 09:55:00,20.5,14.1,30.18,SSE,160,3.0,5.0,76,0.00,,CLR,0.00,128.00,VWS V14.00,2013-01-09 15:55:00,
2013-01-09 10:00:00,20.8,14.4,30.18,SSE,160,3.0,5.0,76,0.00,,CLR,0.00,130.00,VWS V14.00,2013-01-09 16:00:00,
2013-01-09 10:05:00,20.7,14.4,30.18,SSE,160,5.0,5.0,76,0.00,,CLR,0.00,141.00,VWS V14.00,2013-01-09 16:05:00,
2013-01-09 10:10:00,20.1,13.5,30.19,SSE,160,4.0,6.0,75,0.00,,CLR,0.00,146.00,VWS V14.00,2013-01-09 16:10:00,
2013-01-09 10:15:00,19.6,13.3,30.19,SSE,161,5.0,7.0,76,0.00,,CLR,0.00,167.00,VWS V14.00,2013-01-09 16:15:00,
2013-01-09 10:20:00,19.3,13.6,30.19,SSE,161,6.0,7.0,78,0.00,,CLR,0.00,176.00,VWS V14.00,2013-01-09 16:20:00,
2013-01-09 10:25:00,19.9,14.4,30.19,SSE,162,5.0,8.0,79,0.00,,CLR,0.00,185.00,VWS V14.00,2013-01-09 16:25:00,
2013-01-09 10:30:00,20.2,14.4,30.19,SSE,153,8.0,8.0,78,0.00,,CLR,0.00,230.00,VWS V14.00,2013-01-09 16:30:00,
2013-01-09 10:35:00,20.7,14.9,30.19,SSE,149,7.0,8.0,78,0.00,,CLR,0.00,214.00,VWS V14.00,2013-01-09 16:35:00,
2013-01-09 10:40:00,20.7,14.9,30.19,SE,137,9.0,10.0,78,0.00,,CLR,0.00,285.00,VWS V14.00,2013-01-09 16:40:00,
2013-01-09 10:45:00,21.0,15.2,30.19,SE,130,8.0,10.0,78,0.00,,CLR,0.00,301.00,VWS V14.00,2013-01-09 16:45:00,
2013-01-09 10:50:00,21.7,15.9,30.19,ESE,121,9.0,10.0,78,0.00,,CLR,0.00,255.00,VWS V14.00,2013-01-09 16:50:00,
2013-01-09 10:55:00,22.1,16.0,30.19,ESE,119,8.0,10.0,77,0.00,,CLR,0.00,232.00,VWS V14.00,2013-01-09 16:55:00,
2013-01-09 11:00:00,22.2,15.8,30.19,ESE,117,8.0,8.0,76,0.00,,CLR,0.00,237.00,VWS V14.00,2013-01-09 17:00:00,
2013-01-09 11:05:00,22.3,15.9,30.19,ESE,117,8.0,9.0,76,0.00,,CLR,0.00,253.00,VWS V14.00,2013-01-09 17:05:00,
2013-01-09 11:10:00,22.2,16.1,30.19,SE,129,6.0,12.0,77,0.00,,CLR,0.00,236.00,VWS V14.00,2013-01-09 17:10:00,
2013-01-09 11:15:00,22.3,16.2,30.19,SE,130,9.0,12.0,77,0.00,,CLR,0.00,244.00,VWS V14.00,2013-01-09 17:15:00,
2013-01-09 11:20:00,22.7,16.6,30.19,SE,132,12.0,12.0,77,0.00,,CLR,0.00,290.00,VWS V14.00,2013-01-09 17:20:00,
2013-01-09 11:25:00,23.5,17.4,30.19,SE,131,10.0,12.0,77,0.00,,CLR,0.00,329.00,VWS V14.00,2013-01-09 17:25:00,
2013-01-09 11:30:00,23.9,17.5,30.19,SE,132,6.0,10.0,76,0.00,,CLR,0.00,297.00,VWS V14.00,2013-01-09 17:30:00,
2013-01-09 11:35:00,24.2,17.4,30.19,SE,134,11.0,11.0,75,0.00,,CLR,0.00,323.00,VWS V14.00,2013-01-09 17:35:00,
2013-01-09 11:41:00,24.5,17.4,30.19,SE,130,10.0,15.0,74,0.00,,CLR,0.00,313.00,VWS V14.00,2013-01-09 17:41:00,
2013-01-09 11:46:00,24.5,17.4,30.19,SE,130,10.0,15.0,74,0.00,,CLR,0.00,279.00,VWS V14.00,2013-01-09 17:46:00,
2013-01-09 11:51:00,24.4,17.3,30.18,SE,126,11.0,15.0,74,0.00,,CLR,0.00,301.00,VWS V14.00,2013-01-09 17:51:00,
2013-01-09 11:56:00,24.4,17.6,30.18,ESE,123,8.0,15.0,75,0.00,,CLR,0.00,302.00,VWS V14.00,2013-01-09 17:56:00,
2013-01-09 12:01:00,24.4,17.6,30.18,ESE,123,9.0,12.0,75,0.00,,CLR,0.00,278.00,VWS V14.00,2013-01-09 18:01:00,
2013-01-09 12:06:00,24.4,17.6,30.17,SE,131,11.0,14.0,75,0.00,,CLR,0.00,274.00,VWS V14.00,2013-01-09 18:06:00,
2013-01-09 12:11:00,24.4,17.6,30.17,SE,126,11.0,14.0,75,0.00,,CLR,0.00,272.00,VWS V14.00,2013-01-09 18:11:00,
2013-01-09 12:16:00,24.5,18.0,30.17,SE,131,12.0,15.0,76,0.00,,CLR,0.00,283.00,VWS V14.00,2013-01-09 18:16:00,
2013-01-09 12:21:00,24.7,18.2,30.17,SE,136,9.0,15.0,76,0.00,,CLR,0.00,306.00,VWS V14.00,2013-01-09 18:21:00,
2013-01-09 12:26:00,24.9,18.4,30.17,SE,132,14.0,15.0,76,0.00,,CLR,0.00,301.00,VWS V14.00,2013-01-09 18:26:00,
2013-01-09 12:31:00,24.9,18.4,30.17,SE,132,14.0,14.0,76,0.00,,CLR,0.00,329.00,VWS V14.00,2013-01-09 18:31:00,
2013-01-09 12:36:00,25.1,18.9,30.17,SE,139,13.0,15.0,77,0.00,,CLR,0.00,352.00,VWS V14.00,2013-01-09 18:36:00,
2013-01-09 12:41:00,25.7,19.2,30.16,SE,142,11.0,16.0,76,0.00,,CLR,0.00,327.00,VWS V14.00,2013-01-09 18:41:00,
2013-01-09 12:42:00,25.8,19.3,30.16,SSE,148,11.0,17.0,76,0.00,,CLR,0.00,318.00,VWS V14.00,2013-01-09 18:42:00,
2013-01-09 12:44:00,26.1,19.3,30.16,SSE,155,11.0,17.0,75,0.00,,CLR,0.00,308.00,VWS V14.00,2013-01-09 18:44:00,
2013-01-09 12:45:00,26.2,19.4,30.16,SSE,155,11.0,17.0,75,0.00,,CLR,0.00,297.00,VWS V14.00,2013-01-09 18:45:00,
2013-01-09 12:46:00,26.2,19.4,30.17,SSE,159,10.0,17.0,75,0.00,,CLR,0.00,297.00,VWS V14.00,2013-01-09 18:46:00,
2013-01-09 12:48:00,26.4,19.2,30.16,SSE,154,13.0,17.0,74,0.00,,CLR,0.00,295.00,VWS V14.00,2013-01-09 18:48:00,
2013-01-09 12:49:00,26.4,19.6,30.16,SSE,148,12.0,17.0,75,0.00,,CLR,0.00,294.00,VWS V14.00,2013-01-09 18:49:00,
2013-01-09 12:54:00,26.5,19.4,30.16,SSE,161,18.0,18.0,74,0.00,,CLR,0.00,302.00,VWS V14.00,2013-01-09 18:54:00,
2013-01-09 12:55:00,26.5,19.0,30.17,SSE,161,16.0,18.0,73,0.00,,CLR,0.00,290.00,VWS V14.00,2013-01-09 18:55:00,
2013-01-09 13:00:00,26.5,19.4,30.17,SSE,150,15.0,18.0,74,0.00,,CLR,0.00,283.00,VWS V14.00,2013-01-09 19:00:00,
2013-01-09 13:05:00,26.6,19.8,30.17,SSE,151,15.0,18.0,75,0.00,,CLR,0.00,283.00,VWS V14.00,2013-01-09 19:05:00,
2013-01-09 13:10:00,26.6,19.8,30.17,SSE,149,13.0,18.0,75,0.00,,CLR,0.00,258.00,VWS V14.00,2013-01-09 19:10:00,
2013-01-09 13:15:00,26.7,19.9,30.17,SSE,148,12.0,19.0,75,0.00,,CLR,0.00,258.00,VWS V14.00,2013-01-09 19:15:00,
2013-01-09 13:20:00,26.8,20.0,30.16,SE,146,17.0,19.0,75,0.00,,CLR,0.00,299.00,VWS V14.00,2013-01-09 19:20:00,
2013-01-09 13:25:00,27.0,20.1,30.16,SE,144,19.0,19.0,75,0.00,,CLR,0.00,316.00,VWS V14.00,2013-01-09 19:25:00,
2013-01-09 13:31:00,27.4,20.2,30.16,SSE,155,16.0,20.0,74,0.00,,CLR,0.00,283.00,VWS V14.00,2013-01-09 19:31:00,
2013-01-09 13:36:00,27.5,20.3,30.15,SSE,150,13.0,20.0,74,0.00,,CLR,0.00,373.00,VWS V14.00,2013-01-09 19:36:00,
2013-01-09 13:41:00,27.7,20.5,30.15,SE,142,12.0,20.0,74,0.00,,CLR,0.00,237.00,VWS V14.00,2013-01-09 19:41:00,
2013-01-09 13:46:00,27.8,20.6,30.15,SSE,148,17.0,20.0,74,0.00,,CLR,0.00,221.00,VWS V14.00,2013-01-09 19:46:00,
2013-01-09 13:51:00,28.2,20.7,30.15,SSE,153,16.0,20.0,73,0.00,,CLR,0.00,264.00,VWS V14.00,2013-01-09 19:51:00,
2013-01-09 13:56:00,28.6,21.1,30.14,SSE,157,15.0,20.0,73,0.00,,CLR,0.00,272.00,VWS V14.00,2013-01-09 19:56:00,
2013-01-09 14:01:00,28.8,20.9,30.14,SSE,147,14.0,19.0,72,0.00,,CLR,0.00,248.00,VWS V14.00,2013-01-09 20:01:00,
2013-01-09 14:06:00,28.9,21.4,30.13,SE,140,15.0,19.0,73,0.00,,CLR,0.00,253.00,VWS V14.00,2013-01-09 20:06:00,
2013-01-09 14:11:00,29.0,21.4,30.13,SSE,163,14.0,20.0,73,0.00,,CLR,0.00,213.00,VWS V14.00,2013-01-09 20:11:00,
2013-01-09 14:16:00,29.2,21.6,30.12,SSE,155,16.0,21.0,73,0.00,,CLR,0.00,265.00,VWS V14.00,2013-01-09 20:16:00,
2013-01-09 14:21:00,29.3,21.7,30.12,SE,144,15.0,21.0,73,0.00,,CLR,0.00,281.00,VWS V14.00,2013-01-09 20:21:00,
2013-01-09 14:26:00,29.6,22.0,30.12,SSE,161,11.0,21.0,73,0.00,,CLR,0.00,251.00,VWS V14.00,2013-01-09 20:26:00,
2013-01-09 14:31:00,29.9,22.3,30.13,SSE,163,12.0,17.0,73,0.00,,CLR,0.00,251.00,VWS V14.00,2013-01-09 20:31:00,
2013-01-09 14:36:00,30.0,22.4,30.13,SSE,153,12.0,17.0,73,0.00,,CLR,0.00,253.00,VWS V14.00,2013-01-09 20:36:00,
2013-01-09 14:41:00,30.2,22.6,30.13,SSE,160,12.0,17.0,73,0.00,,CLR,0.00,272.00,VWS V14.00,2013-01-09 20:41:00,
2013-01-09 14:46:00,30.5,22.9,30.13,SSE,158,12.0,17.0,73,0.00,,CLR,0.00,239.00,VWS V14.00,2013-01-09 20:46:00,
2013-01-09 14:51:00,30.7,23.1,30.13,SSE,158,10.0,17.0,73,0.00,,CLR,0.00,223.00,VWS V14.00,2013-01-09 20:51:00,
2013-01-09 14:56:00,30.9,23.3,30.13,SSE,164,13.0,17.0,73,0.00,,CLR,0.00,244.00,VWS V14.00,2013-01-09 20:56:00,
2013-01-09 15:01:00,31.2,23.6,30.13,SSE,153,9.0,11.0,73,0.00,,CLR,0.00,232.00,VWS V14.00,2013-01-09 21:01:00,
2013-01-09 15:07:00,31.4,23.8,30.13,SSE,153,8.0,11.0,73,0.00,,CLR,0.00,223.00,VWS V14.00,2013-01-09 21:07:00,
2013-01-09 15:12:00,31.8,24.1,30.13,SSE,159,8.0,11.0,73,0.00,,CLR,0.00,229.00,VWS V14.00,2013-01-09 21:12:00,
2013-01-09 15:17:00,32.1,24.1,30.13,SSE,156,9.0,13.0,72,0.00,,CLR,0.00,227.00,VWS V14.00,2013-01-09 21:17:00,
2013-01-09 15:22:00,32.3,24.3,30.13,SSE,149,9.0,13.0,72,0.00,,CLR,0.00,202.00,VWS V14.00,2013-01-09 21:22:00,
2013-01-09 15:27:00,32.4,24.4,30.13,SE,141,10.0,13.0,72,0.00,,CLR,0.00,171.00,VWS V14.00,2013-01-09 21:27:00,
2013-01-09 15:32:00,32.3,24.6,30.13,SSE,148,10.0,14.0,73,0.00,,CLR,0.00,163.00,VWS V14.00,2013-01-09 21:32:00,
2013-01-09 15:37:00,32.6,24.9,30.12,SSE,150,11.0,14.0,73,0.00,,CLR,0.00,163.00,VWS V14.00,2013-01-09 21:37:00,
2013-01-09 15:42:00,33.0,25.0,30.12,SSE,161,11.0,14.0,72,0.00,,CLR,0.00,151.00,VWS V14.00,2013-01-09 21:42:00,
2013-01-09 15:47:00,33.2,25.2,30.13,SSE,167,9.0,14.0,72,0.00,,CLR,0.00,141.00,VWS V14.00,2013-01-09 21:47:00,
2013-01-09 15:52:00,33.5,25.5,30.13,SSE,163,8.0,14.0,72,0.00,,CLR,0.00,132.00,VWS V14.00,2013-01-09 21:52:00,
2013-01-09 15:57:00,33.5,25.5,30.13,SSE,150,9.0,14.0,72,0.00,,CLR,0.00,123.00,VWS V14.00,2013-01-09 21:57:00,
2013-01-09 16:02:00,33.4,25.7,30.13,SE,142,5.0,11.0,73,0.00,,CLR,0.00,120.00,VWS V14.00,2013-01-09 22:02:00,
2013-01-09 16:07:00,33.4,25.7,30.12,SSE,151,7.0,11.0,73,0.00,,CLR,0.00,113.00,VWS V14.00,2013-01-09 22:07:00,
2013-01-09 16:12:00,33.5,25.8,30.11,SSE,158,6.0,11.0,73,0.00,,CLR,0.00,97.00,VWS V14.00,2013-01-09 22:12:00,
2013-01-09 16:17:00,33.5,25.8,30.11,SSE,155,7.0,11.0,73,0.00,,CLR,0.00,83.00,VWS V14.00,2013-01-09 22:17:00,
2013-01-09 16:22:00,33.4,26.0,30.10,SSE,150,9.0,11.0,74,0.00,,CLR,0.00,79.00,VWS V14.00,2013-01-09 22:22:00,
2013-01-09 16:27:00,33.2,26.1,30.10,SE,144,7.0,11.0,75,0.00,,CLR,0.00,63.00,VWS V14.00,2013-01-09 22:27:00,
2013-01-09 16:32:00,32.8,25.8,30.10,SE,144,9.0,11.0,75,0.00,,CLR,0.00,49.00,VWS V14.00,2013-01-09 22:32:00,
2013-01-09 16:37:00,32.5,25.8,30.10,SE,144,7.0,11.0,76,0.00,,CLR,0.00,42.00,VWS V14.00,2013-01-09 22:37:00,
2013-01-09 16:42:00,32.4,26.0,30.10,SSE,147,7.0,11.0,77,0.00,,CLR,0.00,35.00,VWS V14.00,2013-01-09 22:42:00,
2013-01-09 16:47:00,32.4,26.0,30.10,SE,144,7.0,11.0,77,0.00,,CLR,0.00,30.00,VWS V14.00,2013-01-09 22:47:00,
2013-01-09 16:52:00,32.3,25.9,30.10,SE,144,4.0,11.0,77,0.00,,CLR,0.00,25.00,VWS V14.00,2013-01-09 22:52:00,
2013-01-09 16:57:00,31.9,25.5,30.09,SE,144,4.0,11.0,77,0.00,,CLR,0.00,18.00,VWS V14.00,2013-01-09 22:57:00,
2013-01-09 17:02:00,31.9,25.8,30.09,SE,144,4.0,5.0,78,0.00,,CLR,0.00,12.00,VWS V14.00,2013-01-09 23:02:00,
2013-01-09 17:07:00,31.7,25.3,30.09,SE,144,2.0,5.0,77,0.00,,CLR,0.00,9.00,VWS V14.00,2013-01-09 23:07:00,
2013-01-09 17:12:00,31.5,25.4,30.09,SE,144,2.0,5.0,78,0.00,,CLR,0.00,7.00,VWS V14.00,2013-01-09 23:12:00,
2013-01-09 17:17:00,31.2,25.1,30.09,SE,144,3.0,5.0,78,0.00,,CLR,0.00,5.00,VWS V14.00,2013-01-09 23:17:00,
2013-01-09 17:22:00,31.0,25.3,30.08,SE,144,2.0,5.0,79,0.00,,CLR,0.00,0.00,VWS V14.00,2013-01-09 23:22:00,
2013-01-09 17:27:00,30.9,25.2,30.08,SE,144,3.0,5.0,79,0.00,,CLR,0.00,0.00,VWS V14.00,2013-01-09 23:27:00,
2013-01-09 17:32:00,30.5,24.8,30.08,SE,145,5.0,7.0,79,0.00,,CLR,0.00,0.00,VWS V14.00,2013-01-09 23:32:00,
2013-01-09 17:38:00,30.7,25.3,30.08,SSE,153,7.0,8.0,80,0.00,,CLR,0.00,0.00,VWS V14.00,2013-01-09 23:38:00,
2013-01-09 17:43:00,31.2,25.8,30.08,SSE,160,6.0,8.0,80,0.00,,CLR,0.00,0.00,VWS V14.00,2013-01-09 23:43:00,
2013-01-09 17:48:00,31.4,25.6,30.08,SSE,163,5.0,8.0,79,0.00,,CLR,0.00,0.00,VWS V14.00,2013-01-09 23:48:00,
2013-01-09 17:53:00,31.4,25.6,30.07,SSE,159,7.0,10.0,79,0.00,,CLR,0.00,0.00,VWS V14.00,2013-01-09 23:53:00,
2013-01-09 17:58:00,31.5,25.8,30.07,SSE,162,8.0,10.0,79,0.00,,CLR,0.00,0.00,VWS V14.00,2013-01-09 23:58:00,
2013-01-09 18:03:00,31.4,25.6,30.07,SSE,162,8.0,10.0,79,0.00,,CLR,0.00,0.00,VWS V14.00,2013-01-10 00:03:00,
2013-01-09 18:08:00,31.4,26.0,30.07,SSE,155,9.0,11.0,80,0.00,,CLR,0.00,0.00,VWS V14.00,2013-01-10 00:08:00,
2013-01-09 18:13:00,31.3,25.9,30.07,SSE,160,7.0,11.0,80,0.00,,CLR,0.00,0.00,VWS V14.00,2013-01-10 00:13:00,
2013-01-09 18:18:00,31.1,25.7,30.07,SSE,163,7.0,11.0,80,0.00,,CLR,0.00,0.00,VWS V14.00,2013-01-10 00:18:00,
2013-01-09 18:23:00,30.7,25.3,30.07,SSE,167,6.0,11.0,80,0.00,,CLR,0.00,0.00,VWS V14.00,2013-01-10 00:23:00,
2013-01-09 18:28:00,30.1,24.7,30.07,SSE,167,4.0,11.0,80,0.00,,CLR,0.00,0.00,VWS V14.00,2013-01-10 00:28:00,
2013-01-09 18:33:00,29.6,24.5,30.07,SSE,167,4.0,6.0,81,0.00,,CLR,0.00,0.00,VWS V14.00,2013-01-10 00:33:00,
2013-01-09 18:38:00,29.2,24.4,30.07,SSE,167,6.0,7.0,82,0.00,,CLR,0.00,0.00,VWS V14.00,2013-01-10 00:38:00,
2013-01-09 18:43:00,29.4,24.6,30.07,South,169,4.0,8.0,82,0.00,,CLR,0.00,0.00,VWS V14.00,2013-01-10 00:43:00,
2013-01-09 18:48:00,29.4,24.6,30.07,SSE,168,6.0,9.0,82,0.00,,CLR,0.00,0.00,VWS V14.00,2013-01-10 00:48:00,
2013-01-09 18:53:00,29.5,25.0,30.07,SSE,167,5.0,9.0,83,0.00,,CLR,0.00,0.00,VWS V14.00,2013-01-10 00:53:00,
2013-01-09 18:58:00,29.7,24.9,30.06,SSE,163,7.0,9.0,82,0.00,,CLR,0.00,0.00,VWS V14.00,2013-01-10 00:58:00,
2013-01-09 19:03:00,29.9,25.1,30.06,SSE,160,7.0,8.0,82,0.00,,CLR,0.00,0.00,VWS V14.00,2013-01-10 01:03:00,
2013-01-09 19:08:00,30.0,25.2,30.06,SSE,159,4.0,8.0,82,0.00,,CLR,0.00,0.00,VWS V14.00,2013-01-10 01:08:00,
2013-01-09 19:13:00,29.8,25.0,30.05,SSE,159,6.0,8.0,82,0.00,,CLR,0.00,0.00,VWS V14.00,2013-01-10 01:13:00,
2013-01-09 19:18:00,29.9,25.4,30.05,SSE,159,6.0,8.0,83,0.00,,CLR,0.00,0.00,VWS V14.00,2013-01-10 01:18:00,
2013-01-09 19:23:00,29.9,25.4,30.05,SSE,157,7.0,9.0,83,0.00,,CLR,0.00,0.00,VWS V14.00,2013-01-10 01:23:00,
2013-01-09 19:28:00,29.6,24.8,30.04,SSE,148,5.0,9.0,82,0.00,,CLR,0.00,0.00,VWS V14.00,2013-01-10 01:28:00,
2013-01-09 19:33:00,29.3,24.8,30.04,SE,146,5.0,8.0,83,0.00,,CLR,0.00,0.00,VWS V14.00,2013-01-10 01:33:00,
2013-01-09 19:38:00,29.1,24.6,30.04,SE,143,7.0,9.0,83,0.00,,CLR,0.00,0.00,VWS V14.00,2013-01-10 01:38:00,
2013-01-09 19:44:00,28.8,24.6,30.03,SE,144,9.0,10.0,84,0.00,,CLR,0.00,0.00,VWS V14.00,2013-01-10 01:44:00,
2013-01-09 19:49:00,28.5,24.3,30.02,SE,142,9.0,11.0,84,0.00,,CLR,0.00,0.00,VWS V14.00,2013-01-10 01:49:00,
2013-01-09 19:54:00,28.5,24.6,30.02,SE,137,8.0,12.0,85,0.00,,CLR,0.00,0.00,VWS V14.00,2013-01-10 01:54:00,
2013-01-09 19:59:00,28.3,24.4,30.02,SE,140,7.0,12.0,85,0.00,,CLR,0.00,0.00,VWS V14.00,2013-01-10 01:59:00,
2013-01-09 20:04:00,28.2,24.6,30.02,SE,142,11.0,12.0,86,0.00,,CLR,0.00,0.00,VWS V14.00,2013-01-10 02:04:00,
2013-01-09 20:09:00,28.6,24.7,30.02,SE,140,9.0,13.0,85,0.00,,CLR,0.00,0.00,VWS V14.00,2013-01-10 02:09:00,
2013-01-09 20:14:00,28.5,24.6,30.02,SE,144,9.0,13.0,85,0.00,,CLR,0.00,0.00,VWS V14.00,2013-01-10 02:14:00,
2013-01-09 20:19:00,28.2,24.3,30.01,SE,142,10.0,13.0,85,0.00,,CLR,0.00,0.00,VWS V14.00,2013-01-10 02:19:00,
2013-01-09 20:24:00,27.9,24.3,30.00,SE,141,14.0,14.0,86,0.00,,CLR,0.00,0.00,VWS V14.00,2013-01-10 02:24:00,
2013-01-09 20:29:00,27.9,24.3,30.01,SE,140,11.0,14.0,86,0.00,,CLR,0.00,0.00,VWS V14.00,2013-01-10 02:29:00,
2013-01-09 20:34:00,28.0,24.4,30.00,SE,140,12.0,14.0,86,0.00,,CLR,0.00,0.00,VWS V14.00,2013-01-10 02:34:00,
2013-01-09 20:39:00,27.8,24.2,30.00,SSE,147,9.0,14.0,86,0.00,,CLR,0.00,0.00,VWS V14.00,2013-01-10 02:39:00,
2013-01-09 20:44:00,27.9,24.5,30.00,SE,139,9.0,14.0,87,0.00,,CLR,0.00,0.00,VWS V14.00,2013-01-10 02:44:00,
2013-01-09 20:49:00,27.8,24.2,30.00,SE,139,12.0,14.0,86,0.00,,CLR,0.00,0.00,VWS V14.00,2013-01-10 02:49:00,
2013-01-09 20:54:00,27.8,24.4,30.00,SE,138,10.0,14.0,87,0.00,,CLR,0.00,0.00,VWS V14.00,2013-01-10 02:54:00,
2013-01-09 20:59:00,27.8,24.4,30.00,SE,138,11.0,11.0,87,0.00,,CLR,0.00,0.00,VWS V14.00,2013-01-10 02:59:00,
2013-01-09 21:04:00,28.0,24.6,30.00,SE,135,10.0,12.0,87,0.00,,CLR,0.00,0.00,VWS V14.00,2013-01-10 03:04:00,
2013-01-09 21:09:00,28.1,24.7,29.99,SE,132,12.0,13.0,87,0.00,,CLR,0.00,0.00,VWS V14.00,2013-01-10 03:09:00,
2013-01-09 21:14:00,28.0,24.6,29.99,SE,126,11.0,13.0,87,0.00,,CLR,0.00,0.00,VWS V14.00,2013-01-10 03:14:00,
2013-01-09 21:19:00,28.3,24.9,29.99,SE,128,14.0,14.0,87,0.00,,CLR,0.00,0.00,VWS V14.00,2013-01-10 03:19:00,
2013-01-09 21:24:00,28.5,25.1,29.98,SE,132,10.0,14.0,87,0.00,,CLR,0.00,0.00,VWS V14.00,2013-01-10 03:24:00,
2013-01-09 21:29:00,28.4,25.0,29.98,SE,126,11.0,11.0,87,0.00,,CLR,0.00,0.00,VWS V14.00,2013-01-10 03:29:00,
2013-01-09 21:34:00,28.1,24.7,29.99,SE,129,10.0,13.0,87,0.00,,CLR,0.00,0.00,VWS V14.00,2013-01-10 03:34:00,
2013-01-09 21:39:00,28.0,24.6,29.99,SE,128,12.0,14.0,87,0.00,,CLR,0.00,0.00,VWS V14.00,2013-01-10 03:39:00,
2013-01-09 21:44:00,27.9,24.5,29.99,ESE,121,10.0,14.0,87,0.00,,CLR,0.00,0.00,VWS V14.00,2013-01-10 03:44:00,
2013-01-09 21:49:00,27.2,23.9,29.99,ESE,113,10.0,14.0,87,0.00,,CLR,0.00,0.00,VWS V14.00,2013-01-10 03:49:00,
2013-01-09 21:54:00,27.1,24.0,29.99,ESE,112,4.0,14.0,88,0.00,,CLR,0.00,0.00,VWS V14.00,2013-01-10 03:54:00,
2013-01-09 21:59:00,27.0,23.6,29.99,ESE,104,7.0,7.0,87,0.00,,CLR,0.00,0.00,VWS V14.00,2013-01-10 03:59:00,
2013-01-09 22:04:00,26.5,23.2,29.99,East,97,6.0,7.0,87,0.00,,CLR,0.00,0.00,VWS V14.00,2013-01-10 04:04:00,
2013-01-09 22:10:00,26.8,24.0,29.99,East,98,7.0,9.0,89,0.00,,CLR,0.00,0.00,VWS V14.00,2013-01-10 04:10:00,
2013-01-09 22:15:00,27.0,24.2,29.98,East,101,8.0,9.0,89,0.00,,CLR,0.00,0.00,VWS V14.00,2013-01-10 04:15:00,
2013-01-09 22:20:00,26.9,23.8,29.98,ESE,121,11.0,11.0,88,0.00,,CLR,0.00,0.00,VWS V14.00,2013-01-10 04:20:00,
2013-01-09 22:25:00,27.1,24.0,29.98,SE,128,10.0,12.0,88,0.00,,CLR,0.00,0.00,VWS V14.00,2013-01-10 04:25:00,
2013-01-09 22:30:00,27.3,24.2,29.98,SE,135,9.0,11.0,88,0.00,,CLR,0.00,0.00,VWS V14.00,2013-01-10 04:30:00,
2013-01-09 22:35:00,27.2,24.1,29.98,SE,135,10.0,11.0,88,0.00,,CLR,0.00,0.00,VWS V14.00,2013-01-10 04:35:00,
2013-01-09 22:40:00,26.9,23.8,29.97,SE,131,9.0,11.0,88,0.00,,CLR,0.00,0.00,VWS V14.00,2013-01-10 04:40:00,
2013-01-09 22:45:00,26.7,23.9,29.97,SE,134,10.0,13.0,89,0.00,,CLR,0.00,0.00,VWS V14.00,2013-01-10 04:45:00,
2013-01-09 22:50:00,26.8,24.0,29.96,SE,139,9.0,13.0,89,0.00,,CLR,0.00,0.00,VWS V14.00,2013-01-10 04:50:00,
2013-01-09 22:55:00,26.9,24.1,29.96,SE,139,9.0,13.0,89,0.00,,CLR,0.00,0.00,VWS V14.00,2013-01-10 04:55:00,
2013-01-09 23:00:00,27.1,24.3,29.97,SE,140,7.0,10.0,89,0.00,,CLR,0.00,0.00,VWS V14.00,2013-01-10 05:00:00,
2013-01-09 23:01:00,27.0,24.2,29.97,SE,139,8.0,10.0,89,0.00,,CLR,0.00,0.00,VWS V14.00,2013-01-10 05:01:00,
2013-01-09 23:04:00,26.9,23.8,29.96,SE,138,9.0,10.0,88,0.00,,CLR,0.00,0.00,VWS V14.00,2013-01-10 05:04:00,
2013-01-09 23:06:00,26.9,24.1,29.96,SE,137,9.0,10.0,89,0.00,,CLR,0.00,0.00,VWS V14.00,2013-01-10 05:06:00,
2013-01-09 23:11:00,27.0,24.2,29.95,SE,135,11.0,12.0,89,0.00,,CLR,0.00,0.00,VWS V14.00,2013-01-10 05:11:00,
2013-01-09 23:16:00,27.1,24.3,29.94,SE,136,12.0,13.0,89,0.00,,CLR,0.00,0.00,VWS V14.00,2013-01-10 05:16:00,
2013-01-09 23:21:00,27.2,24.4,29.94,SE,136,9.0,14.0,89,0.00,,CLR,0.00,0.00,VWS V14.00,2013-01-10 05:21:00,
2013-01-09 23:26:00,27.4,24.6,29.94,SE,135,10.0,14.0,89,0.00,,CLR,0.00,0.00,VWS V14.00,2013-01-10 05:26:00,
2013-01-09 23:31:00,27.2,24.4,29.94,SE,128,10.0,11.0,89,0.00,,CLR,0.00,0.00,VWS V14.00,2013-01-10 05:31:00,
2013-01-09 23:36:00,27.4,24.6,29.93,SE,126,9.0,12.0,89,0.00,,CLR,0.00,0.00,VWS V14.00,2013-01-10 05:36:00,
2013-01-09 23:41:00,27.4,24.6,29.93,SE,126,11.0,12.0,89,0.00,,CLR,0.00,0.00,VWS V14.00,2013-01-10 05:41:00,
2013-01-09 23:46:00,27.6,24.8,29.93,ESE,123,11.0,13.0,89,0.00,,CLR,0.00,0.00,VWS V14.00,2013-01-10 05:46:00,
2013-01-09 23:51:00,27.4,24.3,29.93,ESE,118,12.0,15.0,88,0.00,,CLR,0.00,0.00,VWS V14.00,2013-01-10 05:51:00,
2013-01-09 23:56:00,27.3,24.2,29.92,ESE,120,13.0,16.0,88,0.00,,CLR,0.00,0.00,VWS V14.00,2013-01-10 05:56:00,